Regional Weather Roundup
Issued by NWS Newport/Morehead, NC

Current Version | Previous Version | Graphics & Text | Print | Product List | Glossary On
Versions: 1 2 3 4 5 6 7 8 9 10 11 12 13 14 15 16 17 18 19 20 21 22 23 24 25 26 27 28 29 30 31 32 33 34 35 36 37 38 39 40 41 42 43 44 45 46 47 48 49 50
000 ASUS42 KMHX 181325 RWRMHX WEATHER ROUNDUP FOR EASTERN NORTH CAROLINA NATIONAL WEATHER SERVICE NEWPORT/MOREHEAD CITY NC 900 AM EDT WED OCT 18 2017 NOTE: "FAIR" INDICATES FEW OR NO CLOUDS BELOW 12,000 FEET WITH NO SIGNIFICANT WEATHER AND/OR OBSTRUCTIONS TO VISIBILITY NCZ015>017-031-032-045>047-102-103-181400- NORTH COAST CITY SKY/WX TMP DP RH WIND PRES REMARKS EDENTON SUNNY 55 50 84 CALM 30.38R ELIZABETH CITY SUNNY 57 52 83 N8 30.37R KITTY HAWK MOSUNNY 63 49 60 NE8 30.34R MANTEO SUNNY N/A N/A N/A E14 30.35R $$ NCZ045>047-081-094-103-104-181400- CENTRAL COAST CITY SKY/WX TMP DP RH WIND PRES REMARKS FRISCO SUNNY 66 54 65 NE9 30.32R $$ NCZ095-097-098-100-101-181400- SOUTHERN COAST CITY SKY/WX TMP DP RH WIND PRES REMARKS BEAUFORT SUNNY 61 55 81 N14 30.32R CEDAR ISLAND NOT AVBL JACKSONVILLE SUNNY 54 49 83 N8 30.34R PINEY ISLAND N/A N/A N/A N/A NE16 30.32R WILMINGTON SUNNY 54 48 80 NE7 30.33R $$ NCZ011>013-027>030-043-044-078>080-089-090>093-098-181400- COASTAL PLAIN CITY SKY/WX TMP DP RH WIND PRES REMARKS AHOSKIE SUNNY 46 43 91 N6 30.39R CLINTON SUNNY 51 46 84 NE7 30.38R ELIZABETHTOWN NOT AVBL GOLDSBORO SUNNY 50 44 80 NE6 30.36R GREENVILLE SUNNY 48 45 87 N6 30.38R HAVELOCK SUNNY 58 53 84 N13 30.34R KENANSVILLE SUNNY 50 45 81 N8 30.37R KINSTON SUNNY 48 46 93 N6 30.38R NEW BERN SUNNY 53 50 89 N10 30.36R RICHLANDS SUNNY 52 48 86 N8 30.35R ROCKY MOUNT SUNNY 48 45 89 N3 30.39R WASHINGTON SUNNY 53 48 83 NE8 30.37S WHITEVILLE SUNNY 51 45 80 NE5 30.34S $$ AMZ130-135-150-152-154-156-158-170-250-252-270-ANZ085-086-088-633-658-670-181400- MARINE OBSERVATIONS STATION/POSITION TIME TEMP WIND PRES WAVE SWELL AIR SEA DIR/SP/G HT/PER HT/PER (UTC) (F) (DEG/KT/KT) (MB) (FT/S) (FT/S) CHESAPEAKE LIGHT NOT AVBL 64 E VA BEACH 1250 63 67 50/ 12/ 16 1028.1 5/ 9 3/ 9 DUCK 1300 62 68 50/ 12/ 16 1027.7 2 E DUCK 1300 70 N/A 4/ 7 2/11 OREGON INLET 1300 64 64 40/ 12/ 17 1027.2 13E OREGON INLT 1248 71 N/A 6/ 8 5/ 8 HATTERAS CG 1300 64 66 40/ 10/ 15 1026.5 DIAMOND BUOY 1250 68 81 20/ 19/ 23 1025.4 6/ 9 3/ 9 CAPE LOOKOUT 1300 62 360/ 12/ 14 1026.0 BEAUFORT LAB 1300 61 69 360/ 11/ 13 1026.8 30 SE NEW RVR IN 1308 67 50/ 21/ 27 1025.2 30 SE NEW RVR IN NOT AVBL 27 SE WRIGHTSVLE 1308 66 77 50/ 17/ 25 1025.5 5 SE WRIGHTSVLE 1308 61 74 40/ 14/ 21 1026.6 225 S CAPE HAT 1250 74 80 50/ 21/ 27 1020.0 9/ 9 41 SE CHARLESTON 1300 71 80 30/ 19/ 25 1023.5 $$

USA.gov is the U.S. government's official web portal to all federal, state and local government web resources and services.